Location: Slemon Park
(46.4340°N, 63.8219°W)
Time: 20:46:08
(UTC-04:00)

ISS - All Passes

Search period start: 20 January 2018 00:00
Search period end: 30 January 2018 00:00
Orbit: 402 x 407 km, 51.6° (Epoch: 21 January)

Date Brightness Start Highest point End Pass type
(mag) Time Alt. Az. Time Alt. Az. Time Alt. Az.
20 Jan - 00:37:11 10° WNW 00:40:10 31° N 00:43:09 10° ENE night (unlit)
20 Jan - 02:13:52 10° WNW 02:17:05 52° NNE 02:20:18 10° E night (unlit)
20 Jan - 03:50:29 10° WNW 03:53:28 32° SW 03:56:27 10° SSE night (unlit)
20 Jan - 20:32:37 10° S 20:34:51 17° SE 20:37:05 10° E night (unlit)
20 Jan - 22:07:42 10° WSW 22:10:58 83° NNW 22:14:15 10° ENE night (unlit)
20 Jan - 23:44:44 10° WNW 23:47:44 33° N 23:50:45 10° ENE night (unlit)
21 Jan - 01:21:36 10° WNW 01:24:42 39° NNE 01:27:50 10° E night (unlit)
21 Jan - 02:58:04 10° WNW 03:01:19 56° SSW 03:04:31 10° SE night (unlit)
21 Jan - 21:15:29 10° SW 21:18:42 61° SSE 21:21:57 10° ENE night (unlit)
21 Jan - 22:52:14 10° W 22:55:19 38° NNW 22:58:25 10° ENE night (unlit)
22 Jan - 00:29:16 10° WNW 00:32:18 33° N 00:35:19 10° ENE night (unlit)
22 Jan - 02:05:46 10° WNW 02:09:03 88° NE 02:12:20 10° ESE night (unlit)
22 Jan - 03:43:02 10° W 03:45:09 16° SW 03:47:14 10° S night (unlit)
22 Jan - 20:23:30 10° SSW 20:26:30 35° SE 20:29:32 10° ENE night (unlit)
22 Jan - 21:59:44 10° W 22:02:55 49° NNW 22:06:08 10° ENE night (unlit)
22 Jan - 23:36:52 10° WNW 23:39:51 31° N 23:42:50 10° ENE night (unlit)
23 Jan - 01:13:29 10° WNW 01:16:44 58° NNE 01:19:58 10° ESE night (unlit)
23 Jan - 02:50:12 10° W 02:53:02 27° SW 02:55:52 10° SSE night (unlit)
23 Jan - 19:31:50 10° S 19:34:21 21° SE 19:36:53 10° E visible
23 Jan - 21:07:18 10° WSW 21:10:33 71° NNW 21:13:50 10° ENE night (unlit)
23 Jan - 22:44:24 10° WNW 22:47:23 32° N 22:50:23 10° ENE night (unlit)
24 Jan - 00:21:11 10° WNW 00:24:20 43° NNE 00:27:29 10° E night (unlit)
24 Jan - 01:57:42 10° WNW 02:00:51 46° SW 02:04:00 10° SE night (unlit)
24 Jan - 18:40:57 10° SSE 18:42:17 12° SE 18:43:37 10° ESE visible
24 Jan - 20:15:00 10° SW 20:18:15 73° SSE 20:21:31 10° ENE visible
24 Jan - 21:51:52 10° W 21:54:55 36° N 21:57:59 10° ENE night (unlit)
24 Jan - 23:28:51 10° WNW 23:31:54 35° N 23:34:57 10° ENE night (unlit)
25 Jan - 01:05:19 10° WNW 01:08:35 79° SSW 01:11:52 10° ESE night (unlit)
25 Jan - 02:42:58 10° WSW 02:44:36 13° SW 02:46:14 10° SSW night (unlit)
25 Jan - 19:22:52 10° SW 19:25:59 42° SE 19:29:06 10° ENE visible
25 Jan - 20:59:19 10° W 21:02:28 44° NNW 21:05:38 10° ENE night (unlit)
25 Jan - 22:36:26 10° WNW 22:39:25 31° N 22:42:24 10° ENE night (unlit)
26 Jan - 00:13:00 10° WNW 00:16:15 67° NNE 00:19:31 10° ESE night (unlit)
26 Jan - 01:49:51 10° W 01:52:29 22° SW 01:55:07 10° SSE night (unlit)
26 Jan - 18:31:03 10° SSW 18:33:46 25° SE 18:36:31 10° E visible
26 Jan - 20:06:49 10° WSW 20:10:03 62° NNW 20:13:18 10° ENE visible
26 Jan - 21:43:56 10° WNW 21:46:54 31° N 21:49:53 10° ENE night (unlit)
26 Jan - 23:20:39 10° WNW 23:23:51 47° NNE 23:27:01 10° E night (unlit)
27 Jan - 00:57:13 10° WNW 01:00:18 38° SW 01:03:21 10° SSE night (unlit)
27 Jan - 17:39:44 10° S 17:41:38 15° SE 17:43:32 10° E visible
27 Jan - 19:14:25 10° WSW 19:17:41 86° SSE 19:20:57 10° ENE visible
27 Jan - 20:51:23 10° WNW 20:54:24 34° N 20:57:26 10° ENE visible
27 Jan - 22:28:17 10° WNW 22:31:22 37° NNE 22:34:27 10° E night (unlit)
28 Jan - 00:04:45 10° WNW 00:08:01 66° SSW 00:11:15 10° SE night (unlit)
28 Jan - 01:43:05 10° WSW 01:43:56 11° SW 01:44:47 10° SSW night (unlit)
28 Jan - 18:22:11 10° SW 18:25:21 51° SSE 18:28:32 10° ENE visible
28 Jan - 19:58:47 10° W 20:01:54 40° NNW 20:05:02 10° ENE visible
28 Jan - 21:35:52 10° WNW 21:38:52 32° N 21:41:52 10° ENE night (unlit)
28 Jan - 23:12:22 10° WNW 23:15:39 77° NNE 23:18:55 10° ESE night (unlit)
29 Jan - 00:49:25 10° W 00:51:48 19° SW 00:54:11 10° S night (unlit)
29 Jan - 17:30:12 10° SSW 17:33:05 30° SE 17:36:00 10° ENE daylight
29 Jan - 19:06:13 10° W 19:09:26 54° NNW 19:12:39 10° ENE visible
29 Jan - 20:43:21 10° WNW 20:46:19 31° N 20:49:18 10° ENE visible
29 Jan - 22:20:01 10° WNW 22:23:14 52° NNE 22:26:26 10° E night (unlit)
